Location: Central Falls
(41.8900°N, 71.3929°W)
Time: 12:17:19
(UTC+00:00)

A-11 Canister half - Pass Details

Date: 05 December 2023
Orbit: 1526 x 1682 km, 47.3° (Epoch: 20 February)

Event Time Altitude Azimuth Distance (km) Brightness Sun altitude
Rises 00:21:04 0° 241° (WSW) 4,920 12.5 -34.0°
Reaches altitude 10° 00:24:13 10° 241° (WSW) 3,938 11.8 -34.5°
Maximum altitude 00:34:25 89° 153° (SSE) 1,679 9.0 -36.4°
Enters shadow 00:34:48 85° 76° (ENE) 1,684 8.9 -36.5°
Drops below altitude 10° 00:44:30 10° 66° (ENE) 3,898 - -38.3°
Sets 00:47:37 0° 66° (ENE) 4,869 - -38.9°
